Location: Godziszka
(49.7127°N, 19.0761°E)
Time: 00:56:50
(UTC+02:00)

ISS - Visible Passes

Search period start: 21 September 2018 00:00
Search period end: 01 October 2018 00:00
Orbit: 403 x 408 km, 51.6° (Epoch: 21 September)

Date Brightness Start Highest point End Pass type
(mag) Time Alt. Az. Time Alt. Az. Time Alt. Az.
22 Sep -2.0 20:27:25 10° SSW 20:28:51 20° S 20:28:51 20° S visible
23 Sep -2.1 19:36:19 10° S 19:38:36 17° SE 19:39:37 15° ESE visible
23 Sep -1.4 21:11:24 10° WSW 21:12:19 17° WSW 21:12:19 17° WSW visible
24 Sep -3.6 20:19:39 10° SW 20:22:52 49° SSE 20:22:54 49° SSE visible
25 Sep -2.9 19:28:06 10° SSW 19:31:05 32° SSE 19:33:19 15° E visible
25 Sep -2.1 21:04:08 10° W 21:06:01 31° W 21:06:01 31° W visible
26 Sep -3.9 20:12:13 10° WSW 20:15:31 83° SSE 20:16:18 50° E visible
26 Sep -0.4 21:48:53 10° W 21:48:59 11° W 21:48:59 11° W visible
27 Sep -3.7 19:20:24 10° SW 19:23:39 58° SSE 19:26:29 13° ENE visible
27 Sep -2.4 20:56:54 10° W 20:59:10 38° WNW 20:59:10 38° WNW visible
28 Sep -3.7 20:04:55 10° W 20:08:13 71° NNW 20:09:17 39° ENE visible
28 Sep -0.5 21:41:37 10° WNW 21:41:57 12° WNW 21:41:57 12° WNW visible
29 Sep -3.8 19:12:57 10° WSW 19:16:15 88° NNW 19:19:20 12° ENE visible
29 Sep -2.5 20:49:38 10° WNW 20:52:00 40° WNW 20:52:00 40° WNW visible
30 Sep -3.5 19:57:37 10° W 20:00:54 60° N 20:02:01 35° ENE visible
30 Sep -0.5 21:34:15 10° WNW 21:34:41 13° WNW 21:34:41 13° WNW visible
